Change the Weather History Date:

Wednesday, November 21, 2012

  Actual Average Record
Temperature  
Mean Temperature 68 °F 67 °F  
Max Temperature 80 °F 78 °F 90 °F (1942)
Min Temperature 56 °F 56 °F 31 °F (1935)
Degree Days  
Heating Degree Days 0 3  
Month to date heating degree days 1 24  
Since 1 July heating degree days 5 27  
Cooling Degree Days 3 4  
Month to date cooling degree days 148 127  
Year to date cooling degree days 4675 3903  
Growing Degree Days 17 (Base 50)    
Moisture  
Dew Point 58 °F    
Average Humidity 74    
Maximum Humidity 100    
Minimum Humidity 48    
Precipitation  
Precipitation 0.00 in 0.03 in 2.80 in (1998)
Month to date precipitation 0.03 1.19  
Year to date precipitation 13.27 23.61  
Sea Level Pressure  
Sea Level Pressure 30.18 in    
Wind  
Wind Speed 6 mph (North)    
Max Wind Speed 17 mph    
Max Gust Speed 23 mph    
Visibility 6 miles    
Events Fog    
T = Trace of Precipitation, MM = Missing Value Source: NWS Daily Summary

Daily Weather History Graph

Daily Weather History Graph

Search for Another Location

Airport or City:

Trip Planner

Search our weather history database for the weather conditions in past years. The results will help you decide how hot, cold, wet, or windy it might be!

Date:

Astronomy

Nov. 21, 2012 Rise Set
Actual Time 6:54 AM CST 5:39 PM CST
Civil Twilight 6:29 AM CST 6:03 PM CST
Nautical Twilight 6:01 AM CST 6:31 PM CST
Astronomical Twilight 5:33 AM CST 6:59 PM CST
Moon 1:24 PM CST (11/21) 12:49 AM CST (11/21)
Length of Visible Light 11h 34m
Length of Day
10h 44m
First Quarter, 62% of the Moon is Illuminated
Nov 21
First Quarter
Nov 28
Full
Dec 6
Last Quarter
Dec 13
New
Dec 19
First Quarter

Hourly Weather History & Observations

Time (CST) Temp. Dew Point Humidity Pressure Visibility Wind Dir Wind Speed Gust Speed Precip Events Conditions
12:52 AM 64.0 °F 61.0 °F 90% 30.16 in 10.0 mi East 5.8 mph - N/A   Clear
1:52 AM 63.0 °F 61.0 °F 93% 30.16 in 10.0 mi Calm Calm - N/A   Clear
2:52 AM 62.1 °F 61.0 °F 96% 30.16 in 8.0 mi Calm Calm - N/A   Clear
3:52 AM 59.0 °F 57.9 °F 96% 30.16 in 6.0 mi Calm Calm - N/A   Clear
4:33 AM 59.0 °F 57.2 °F 94% 30.16 in 1.8 mi NW 4.6 mph - N/A   Clear
4:42 AM 57.2 °F 57.2 °F 100% 30.16 in 3.0 mi NW 4.6 mph - N/A   Clear
4:52 AM 57.9 °F 57.0 °F 97% 30.17 in 8.0 mi NW 4.6 mph - N/A   Clear
5:52 AM 57.0 °F 57.0 °F 100% 30.17 in 2.5 mi NW 3.5 mph - N/A   Clear
6:09 AM 57.2 °F 55.4 °F 94% 30.18 in 5.0 mi NNW 4.6 mph - N/A   Clear
6:17 AM 55.4 °F 55.4 °F 100% 30.18 in 7.0 mi NW 5.8 mph - N/A   Scattered Clouds
6:22 AM 57.2 °F 55.4 °F 94% 30.18 in 2.5 mi NNW 4.6 mph - N/A   Mostly Cloudy
6:27 AM 57.2 °F 55.4 °F 94% 30.18 in 1.0 mi NNW 5.8 mph - N/A   Mist
6:45 AM 55.4 °F 55.4 °F 100% 30.19 in 0.2 mi NW 4.6 mph - N/A Fog Fog
6:52 AM 57.0 °F 55.9 °F 96% 30.19 in 0.2 mi NW 4.6 mph - N/A Fog Fog
7:19 AM 57.2 °F 55.4 °F 94% 30.20 in 1.0 mi NW 5.8 mph - N/A   Mist
7:23 AM 57.2 °F 55.4 °F 94% 30.20 in 2.0 mi NW 5.8 mph - N/A   Scattered Clouds
7:34 AM 57.2 °F 55.4 °F 94% 30.20 in 2.5 mi NW 4.6 mph - N/A   Clear
7:44 AM 59.0 °F 57.2 °F 94% 30.20 in 3.0 mi NNW 4.6 mph - N/A   Clear
7:52 AM 59.0 °F 57.9 °F 96% 30.21 in 4.0 mi NNW 5.8 mph - N/A   Scattered Clouds
8:02 AM 59.0 °F 57.2 °F 94% 30.21 in 2.5 mi NNW 4.6 mph - N/A   Mostly Cloudy
8:09 AM 60.8 °F 59.0 °F 94% 30.21 in 1.0 mi NNW 4.6 mph - N/A   Mostly Cloudy
8:11 AM 60.8 °F 59.0 °F 94% 30.22 in 1.0 mi NNW 4.6 mph - N/A   Overcast
8:18 AM 60.8 °F 59.0 °F 94% 30.22 in 3.0 mi NNW 4.6 mph - N/A   Mostly Cloudy
8:31 AM 62.6 °F 60.8 °F 94% 30.22 in 7.0 mi NNW 4.6 mph - N/A   Clear
8:52 AM 64.0 °F 63.0 °F 96% 30.23 in 10.0 mi Calm Calm - N/A   Clear
9:52 AM 73.9 °F 63.0 °F 68% 30.24 in 10.0 mi NE 4.6 mph - N/A   Clear
10:52 AM 78.1 °F 59.0 °F 52% 30.22 in 10.0 mi ESE 12.7 mph - N/A   Partly Cloudy
11:52 AM 79.0 °F 59.0 °F 50% 30.20 in 10.0 mi ENE 11.5 mph - N/A   Partly Cloudy
12:52 PM 79.0 °F 57.9 °F 48% 30.18 in 10.0 mi ESE 15.0 mph - N/A   Clear
1:52 PM 79.0 °F 57.0 °F 47% 30.15 in 10.0 mi East 11.5 mph - N/A   Clear
2:52 PM 78.1 °F 57.9 °F 50% 30.14 in 10.0 mi East 10.4 mph - N/A   Partly Cloudy
3:52 PM 77.0 °F 57.0 °F 50% 30.14 in 10.0 mi ESE 15.0 mph - N/A   Scattered Clouds
4:52 PM 75.0 °F 57.0 °F 53% 30.14 in 10.0 mi East 11.5 mph - N/A   Clear
5:52 PM 72.0 °F 57.9 °F 61% 30.15 in 10.0 mi East 6.9 mph - N/A   Clear
6:52 PM 68.0 °F 57.9 °F 70% 30.16 in 10.0 mi East 5.8 mph - N/A   Clear
7:52 PM 66.0 °F 57.9 °F 75% 30.17 in 10.0 mi East 5.8 mph - N/A   Clear
8:52 PM 64.9 °F 57.9 °F 78% 30.18 in 10.0 mi East 4.6 mph - N/A   Clear
9:52 PM 64.9 °F 57.9 °F 78% 30.19 in 10.0 mi Calm Calm - N/A   Clear
10:52 PM 63.0 °F 59.0 °F 87% 30.18 in 10.0 mi East 5.8 mph - N/A   Clear
11:52 PM 59.0 °F 55.9 °F 90% 30.16 in 10.0 mi East 6.9 mph - N/A   Clear